TimeEST,TemperatureF,Dew PointF,Humidity,Sea Level PressureIn,VisibilityMPH,Wind Direction,Wind SpeedMPH,Gust SpeedMPH,PrecipitationIn,Events,Conditions,WindDirDegrees,DateUTC
12:15 AM,35.6,33.8,93,29.60,7.0,East,10.4,-,N/A,Rain,Light Rain,100,2012-12-16 05:15:00
12:34 AM,35.6,33.8,93,29.59,5.0,East,10.4,-,N/A,Rain,Light Rain,100,2012-12-16 05:34:00
12:55 AM,35.6,33.8,93,29.58,4.0,East,10.4,-,N/A,Rain,Light Rain,90,2012-12-16 05:55:00
1:14 AM,35.6,33.8,93,29.57,4.0,East,10.4,17.3,N/A,,Light Drizzle,90,2012-12-16 06:14:00
1:54 AM,35.6,33.8,93,29.57,3.0,East,10.4,-,N/A,,Overcast,90,2012-12-16 06:54:00
2:15 AM,35.6,33.8,93,29.56,2.5,East,9.2,-,N/A,Rain,Light Rain,90,2012-12-16 07:15:00
2:35 AM,37.4,33.8,87,29.55,2.5,East,9.2,-,N/A,Snow,Light Snow,90,2012-12-16 07:35:00
2:54 AM,37.4,35.6,93,29.56,2.5,East,11.5,-,N/A,Snow,Light Snow,100,2012-12-16 07:54:00
3:15 AM,37.4,33.8,87,29.55,3.0,East,9.2,-,N/A,,Overcast,100,2012-12-16 08:15:00
3:55 AM,37.4,33.8,87,29.55,1.8,East,10.4,-,N/A,Snow,Light Snow,90,2012-12-16 08:55:00
4:15 AM,37.4,33.8,87,29.54,1.5,East,10.4,-,N/A,Rain,Light Rain,90,2012-12-16 09:15:00
4:34 AM,37.4,35.6,93,29.54,2.0,East,9.2,-,N/A,,Overcast,90,2012-12-16 09:34:00
4:55 AM,37.4,35.6,93,29.53,2.5,East,9.2,17.3,N/A,,Overcast,100,2012-12-16 09:55:00
5:15 AM,37.4,35.6,93,29.53,2.5,East,8.1,-,N/A,,Overcast,90,2012-12-16 10:15:00
5:34 AM,37.4,35.6,93,29.53,3.0,East,9.2,-,N/A,Rain,Light Rain,100,2012-12-16 10:34:00
5:55 AM,37.4,35.6,93,29.52,3.0,East,8.1,-,N/A,Rain,Light Rain,100,2012-12-16 10:55:00
6:14 AM,37.4,35.6,93,29.52,2.5,East,10.4,-,N/A,Rain,Light Rain,100,2012-12-16 11:14:00
6:35 AM,37.4,35.6,93,29.52,2.5,East,8.1,-,N/A,Rain,Light Rain,100,2012-12-16 11:35:00
6:55 AM,37.4,35.6,93,29.52,3.0,East,8.1,-,N/A,,Light Drizzle,100,2012-12-16 11:55:00
7:14 AM,37.4,35.6,93,29.53,4.0,East,5.8,-,N/A,,Overcast,90,2012-12-16 12:14:00
7:35 AM,37.4,35.6,93,29.53,3.0,East,6.9,-,N/A,,Overcast,100,2012-12-16 12:35:00
7:55 AM,37.4,35.6,93,29.52,2.5,East,6.9,-,N/A,Rain,Light Rain,100,2012-12-16 12:55:00
8:15 AM,37.4,35.6,93,29.52,2.5,East,8.1,-,N/A,,Overcast,90,2012-12-16 13:15:00
8:35 AM,37.4,35.6,93,29.52,1.5,East,5.8,-,N/A,,Overcast,90,2012-12-16 13:35:00
8:54 AM,37.4,35.6,93,29.52,0.8,East,6.9,-,N/A,,Overcast,90,2012-12-16 13:54:00
9:15 AM,37.4,35.6,93,29.52,0.5,East,6.9,-,N/A,Fog,Fog,90,2012-12-16 14:15:00
9:35 AM,39.2,37.4,93,29.52,0.5,East,5.8,-,N/A,Fog,Fog,100,2012-12-16 14:35:00
9:54 AM,39.2,37.4,93,29.53,0.2,East,8.1,-,N/A,Fog,Fog,100,2012-12-16 14:54:00
10:15 AM,39.2,37.4,93,29.52,0.2,East,6.9,-,N/A,Fog,Fog,100,2012-12-16 15:15:00
10:35 AM,39.2,37.4,93,29.53,0.2,East,5.8,-,N/A,Fog,Fog,90,2012-12-16 15:35:00
10:55 AM,39.2,37.4,93,29.53,0.2,East,5.8,-,N/A,Fog,Fog,90,2012-12-16 15:55:00
11:15 AM,39.2,37.4,93,29.53,0.2,East,5.8,-,N/A,Fog,Fog,100,2012-12-16 16:15:00
11:35 AM,39.2,37.4,93,29.53,0.2,East,8.1,-,N/A,Fog,Fog,100,2012-12-16 16:35:00
11:55 AM,37.4,35.6,93,29.52,0.2,ESE,8.1,-,N/A,Fog,Fog,110,2012-12-16 16:55:00
12:14 PM,39.2,37.4,93,29.52,0.2,East,5.8,-,N/A,Fog,Fog,100,2012-12-16 17:14:00
12:35 PM,39.2,37.4,93,29.51,0.2,ESE,6.9,-,N/A,Fog,Fog,110,2012-12-16 17:35:00
12:55 PM,39.2,37.4,93,29.51,0.2,ESE,4.6,-,N/A,Fog,Fog,110,2012-12-16 17:55:00
1:14 PM,39.2,37.4,93,29.51,0.2,ENE,3.5,-,N/A,Fog,Fog,60,2012-12-16 18:14:00
1:35 PM,39.2,37.4,93,29.51,0.2,ENE,4.6,-,N/A,Fog,Fog,70,2012-12-16 18:35:00
1:54 PM,39.2,37.4,93,29.51,0.2,ENE,4.6,-,N/A,Fog,Fog,70,2012-12-16 18:54:00
2:15 PM,39.2,37.4,93,29.51,0.2,ENE,3.5,-,N/A,Fog,Fog,70,2012-12-16 19:15:00
2:35 PM,39.2,37.4,93,29.51,0.2,Calm,Calm,-,N/A,Fog,Fog,0,2012-12-16 19:35:00
2:54 PM,39.2,37.4,93,29.50,0.2,ENE,4.6,-,N/A,Fog,Fog,60,2012-12-16 19:54:00
3:15 PM,39.2,37.4,93,29.50,0.2,Calm,Calm,-,N/A,Fog,Fog,0,2012-12-16 20:15:00
3:35 PM,39.2,37.4,93,29.50,0.2,Calm,Calm,-,N/A,Fog,Fog,0,2012-12-16 20:35:00
3:55 PM,39.2,37.4,93,29.51,0.2,Calm,Calm,-,N/A,Fog,Fog,0,2012-12-16 20:55:00
4:15 PM,39.2,37.4,93,29.50,0.2,NE,3.5,-,N/A,Fog,Fog,50,2012-12-16 21:15:00
4:34 PM,39.2,37.4,93,29.51,0.2,Calm,Calm,-,N/A,Rain,Light Rain,0,2012-12-16 21:34:00
4:55 PM,39.2,37.4,93,29.51,0.2,NNE,3.5,-,N/A,Rain,Light Rain,20,2012-12-16 21:55:00
5:14 PM,39.2,37.4,93,29.52,0.5,Calm,Calm,-,N/A,Rain,Rain,0,2012-12-16 22:14:00
5:35 PM,37.4,35.6,93,29.52,0.5,Calm,Calm,-,N/A,Rain,Rain,0,2012-12-16 22:35:00
5:55 PM,37.4,35.6,93,29.53,0.5,Calm,Calm,-,N/A,Rain,Light Rain,0,2012-12-16 22:55:00
6:14 PM,37.4,35.6,93,29.53,0.8,Calm,Calm,-,N/A,Rain,Light Rain,0,2012-12-16 23:14:00
6:35 PM,37.4,35.6,93,29.54,0.8,Calm,Calm,-,N/A,Rain,Light Rain,0,2012-12-16 23:35:00
6:54 PM,37.4,35.6,93,29.54,0.8,Calm,Calm,-,N/A,Rain,Rain,0,2012-12-16 23:54:00
7:15 PM,37.4,35.6,93,29.54,1.0,NNW,3.5,-,N/A,Rain,Rain,330,2012-12-17 00:15:00
7:35 PM,37.4,35.6,93,29.54,1.2,NNW,4.6,-,N/A,Rain,Light Rain,330,2012-12-17 00:35:00
7:54 PM,37.4,35.6,93,29.54,3.0,NNW,6.9,-,N/A,Rain,Rain,330,2012-12-17 00:54:00
8:15 PM,37.4,35.6,93,29.55,4.0,NNW,5.8,-,N/A,,Drizzle,330,2012-12-17 01:15:00
8:34 PM,37.4,35.6,93,29.56,7.0,NNW,6.9,-,N/A,,Overcast,330,2012-12-17 01:34:00
8:55 PM,37.4,35.6,93,29.56,7.0,NW,3.5,-,N/A,,Overcast,310,2012-12-17 01:55:00
9:15 PM,37.4,35.6,93,29.56,10.0,NW,5.8,-,N/A,,Overcast,310,2012-12-17 02:15:00
9:34 PM,37.4,35.6,93,29.56,10.0,NW,5.8,-,N/A,,Overcast,310,2012-12-17 02:34:00
9:55 PM,35.6,33.8,93,29.57,7.0,WNW,3.5,-,N/A,,Light Drizzle,300,2012-12-17 02:55:00
10:14 PM,35.6,33.8,93,29.57,10.0,WNW,3.5,-,N/A,,Overcast,300,2012-12-17 03:14:00
10:35 PM,35.6,33.8,93,29.57,10.0,West,3.5,-,N/A,,Overcast,270,2012-12-17 03:35:00
10:55 PM,35.6,33.8,93,29.56,10.0,West,4.6,-,N/A,,Overcast,280,2012-12-17 03:55:00
11:14 PM,35.6,33.8,93,29.56,10.0,West,4.6,-,N/A,,Overcast,270,2012-12-17 04:14:00
11:35 PM,35.6,33.8,93,29.57,10.0,WSW,3.5,-,N/A,,Overcast,250,2012-12-17 04:35:00
11:54 PM,35.6,33.8,93,29.58,10.0,West,3.5,-,N/A,,Overcast,260,2012-12-17 04:54:00